Temperature
25 25 25 24 24 24 24 23 23 23 24 24 23 23 22 22 21 21 20 20 19 18 18 18 17 17 17 16 16 16 16 15 15 15 15 15 14 14 14 14 14 14 14 14
24 25 25 24 24 24 24 24 24 23 23 24 23 23 22 21 21 20 20 19 19 18 18 17 17 17 17 16 16 16 15 15 15 15 15 15 14 14 14 14 14 14 14 14
22 24 24 23 24 24 24 24 24 23 23 23 22 22 21 21 20 20 19 19 19 18 18 17 17 17 16 16 16 16 15 15 15 15 14 14 14 14 14 14 14 13 13 13
22 22 21 23 25 24 23 23 24 23 23 22 22 21 21 20 20 19 19 18 18 18 17 17 17 16 16 16 16 15 15 15 15 14 14 14 14 14 13 13 13 13 13 13
21 21 22 23 24 23 23 22 23 23 22 22 21 21 20 20 19 19 18 18 17 17 17 17 16 16 16 16 15 15 15 15 14 14 14 13 13 13 13 13 13 13 13 13
21 20 21 22 23 23 23 21 22 22 22 21 21 19 19 19 18 18 17 17 17 17 16 16 16 16 15 15 15 15 14 14 14 14 14 13 13 13 13 13 13 13 13 13
20 20 21 22 22 22 20 20 21 21 21 20 20 19 19 18 17 17 17 16 16 16 16 15 15 15 15 14 14 14 14 14 14 14 13 13 13 13 13 13 13 13 13 12
20 20 20 21 21 21 21 21 21 20 20 20 19 18 18 17 17 16 16 16 15 15 15 15 15 15 14 14 14 14 14 14 13 13 13 13 13 12 12 12 12 12 12 12
21 20 21 21 21 20 20 20 20 19 19 19 18 17 17 16 16 16 15 15 15 15 14 14 14 14 14 14 14 14 13 13 13 13 13 13 12 12 12 12 12 12 12 12
21 21 21 20 20 20 19 19 19 18 18 18 17 17 16 16 15 15 15 15 14 14 14 14 14 14 14 14 14 13 13 13 13 12 12 12 12 12 12 12 12 12 12 12
20 20 20 20 19 19 18 18 18 18 17 17 17 16 16 15 15 15 14 14 14 14 14 13 13 13 13 13 13 13 12 12 12 12 12 12 12 12 12 12 11 11 11 11
19 20 20 19 19 18 18 17 17 17 17 16 16 16 15 15 14 14 14 14 14 13 13 13 13 12 13 13 12 12 12 12 12 11 11 11 11 11 11 11 11 11 11 11
20 19 19 18 18 17 17 17 16 16 16 16 15 15 15 14 14 14 14 13 13 13 13 13 12 12 12 12 12 12 11 11 11 11 11 11 11 10 11 11 11 11 11 10
18 18 17 17 17 16 16 16 16 16 15 15 15 14 14 14 13 13 13 13 13 13 12 12 12 12 12 12 12 11 11 11 11 10 10 10 10 10 10 10 10 10 10 10
17 17 17 16 16 16 16 15 15 15 15 14 14 14 13 13 13 13 13 13 12 12 12 12 12 12 12 11 11 11 11 10 10 10 10 10 10 10 9 9 9 9 10 10
16 16 16 16 15 15 15 15 15 14 14 14 13 13 13 13 12 12 12 12 12 12 12 11 11 11 11 11 11 11 10 10 10 10 10 9 9 9 9 9 9 9 9 9
15 15 15 15 15 15 14 14 14 14 14 13 13 13 12 12 12 12 12 12 12 11 11 11 11 11 11 11 11 10 10 10 10 9 9 9 9 9 9 9 8 8 8 9
15 15 15 14 14 14 14 14 13 13 13 13 12 12 12 11 11 11 11 11 11 11 11 11 10 10 10 10 10 10 10 10 9 9 9 9 9 8 8 8 8 8 8 8
14 14 14 14 14 13 13 13 13 13 12 12 12 11 11 11 11 11 11 10 10 10 10 10 10 10 10 10 10 10 9 9 9 9 9 8 8 8 8 8 7 7 7 7
14 14 13 13 13 13 13 12 12 12 12 11 11 11 10 10 10 10 10 10 10 10 10 10 10 10 9 9 9 9 9 9 8 8 8 8 8 8 7 7 7 7 7 7
13 13 13 13 12 12 12 12 11 11 11 11 10 10 10 10 10 10 9 9 9 9 9 9 9 9 9 9 9 8 8 8 8 8 8 7 7 7 7 7 7 6 6 6
12 12 12 12 12 12 11 11 11 11 10 10 10 9 9 9 9 9 9 9 9 8 8 8 8 8 8 8 8 8 7 7 7 7 7 7 7 7 6 6 6 6 6 6
12 12 11 11 11 11 11 10 10 10 9 9 9 9 9 8 8 8 8 8 8 8 8 8 8 8 8 7 7 7 7 7 7 7 6 6 6 6 6 6 6 6 5 5
11 11 10 10 10 10 10 10 9 9 9 8 8 8 8 8 8 8 8 7 7 7 7 7 7 7 7 7 7 6 6 6 6 6 6 6 6 6 5 5 5 5 5 5
10 10 10 10 9 9 9 9 9 8 8 8 7 7 7 7 7 7 7 7 7 7 7 7 6 6 6 6 6 6 6 5 5 5 5 5 5 5 5 5 5 5 5 4
9 9 9 9 9 9 8 8 8 7 7 7 7 7 7 6 6 6 6 6 6 6 6 6 6 6 5 5 5 5 5 5 5 5 5 4 4 4 4 4 4 4 4 4
8 8 8 8 8 8 7 7 7 7 6 6 6 6 6 6 6 6 6 5 5 5 5 5 5 5 5 5 5 4 4 4 4 4 4 4 4 4 4 4 4 4 4 3
Wind_Speed
10 7 7 8 9 8 9 9 9 8 6 2 2 2 2 3 2 2 2 3 4 4 4 4 4 4 4 3 3 2 3 2 2 1 2 2 2 2 2 2 2 2 2 2
12 10 9 11 11 10 10 10 10 9 6 3 3 2 2 2 1 1 1 2 3 4 4 4 4 4 3 3 3 3 2 2 2 1 1 1 1 1 2 2 2 2 2 2
10 9 9 10 7 8 7 7 7 7 3 2 2 2 3 2 1 0 0 0 1 2 3 4 4 4 3 3 3 3 3 2 2 2 1 1 1 0 1 2 1 2 2 2
8 9 10 4 1 2 4 5 5 4 1 1 1 2 2 2 2 1 0 0 1 1 2 2 3 3 3 3 3 3 2 2 2 2 2 1 1 1 2 2 2 2 2 2
7 8 9 4 1 2 4 5 3 3 2 1 1 1 1 1 2 3 2 1 1 1 1 2 2 2 3 3 3 3 3 3 3 3 3 2 1 2 1 1 1 2 2 2
7 8 7 2 2 3 3 3 3 4 3 3 2 2 2 2 3 3 3 2 2 2 1 0 1 2 3 3 2 3 3 3 3 3 3 3 2 2 1 1 2 2 2 2
10 10 6 1 2 1 2 2 5 5 4 2 1 2 1 2 3 3 3 3 3 2 1 1 1 2 2 2 2 2 2 2 2 3 3 3 2 2 2 2 2 2 2 2
8 9 5 2 1 1 2 4 4 4 4 3 2 2 3 3 3 2 3 3 2 2 2 2 1 2 2 1 1 1 2 2 2 2 2 2 3 2 3 3 3 2 2 2
4 3 1 1 1 2 3 4 4 4 4 4 2 2 1 2 1 1 1 1 1 1 1 1 1 1 1 1 1 1 2 2 2 2 2 2 3 3 2 2 2 2 2 3
6 4 2 1 1 2 3 4 4 3 3 3 2 1 1 1 1 1 1 0 0 0 1 1 1 1 1 1 0 0 1 1 1 2 2 1 1 2 2 3 3 3 3 3
8 5 3 2 0 2 3 4 4 3 3 3 2 2 1 1 2 1 1 1 1 1 2 2 2 1 2 2 2 2 2 1 1 1 1 1 1 1 2 2 3 4 3 3
6 4 3 2 1 1 2 3 3 3 3 3 2 2 2 2 1 1 2 2 2 2 2 3 2 2 2 2 3 3 3 2 2 1 1 1 1 1 2 2 2 3 3 4
6 3 2 3 3 2 2 3 4 3 2 3 2 2 2 2 2 1 2 3 2 2 3 3 3 3 2 3 3 3 3 2 2 2 2 2 2 2 2 3 2 3 3 4
4 2 3 3 3 3 4 4 4 3 2 2 2 2 2 2 2 2 2 2 2 2 2 2 2 2 2 2 3 3 3 2 2 2 2 3 3 3 3 2 2 3 3 4
5 4 4 3 3 3 4 4 3 3 2 2 2 1 2 2 3 3 2 2 2 2 2 2 2 2 2 2 3 4 3 2 2 2 3 3 2 2 3 3 3 2 1 2
5 5 5 5 4 4 5 5 4 4 3 2 2 2 2 2 3 3 2 2 2 2 2 2 2 2 2 2 3 3 3 4 3 3 3 3 3 3 3 3 3 3 3 2
7 7 7 6 6 6 6 5 5 4 3 3 3 2 2 2 2 2 2 2 2 2 2 1 1 1 2 2 3 2 2 3 4 3 3 3 3 3 3 3 4 4 3 3
8 8 7 7 6 6 6 5 5 4 3 3 2 2 3 3 3 3 2 2 2 2 1 0 0 1 2 3 2 2 2 2 3 3 3 3 3 3 3 3 4 4 3 3
7 6 5 5 4 4 4 4 4 3 3 2 3 3 3 3 3 3 2 2 2 2 2 1 1 2 2 2 2 1 2 3 3 3 3 3 4 4 3 4 3 3 3 3
6 5 4 4 4 4 4 4 4 3 3 3 3 3 3 3 3 3 3 3 2 1 1 1 2 2 2 1 2 2 3 3 3 3 3 3 4 4 3 3 3 3 3 3
6 5 5 5 4 4 4 4 3 3 3 3 3 4 4 4 3 2 2 2 2 1 1 2 2 1 1 1 3 3 3 3 3 3 3 3 3 3 4 4 4 3 3 3
5 5 5 5 4 4 3 3 3 3 3 3 3 3 3 3 2 2 2 2 1 1 1 1 1 2 2 3 3 3 3 3 3 3 3 3 3 3 3 4 3 3 3 3
4 4 4 4 4 4 3 2 2 2 2 3 3 3 3 2 2 2 2 1 0 1 1 2 3 5 5 3 3 3 3 3 3 3 3 3 3 3 3 4 3 3 3 3
3 3 3 3 3 3 3 2 1 1 1 2 2 2 2 2 2 1 1 1 1 1 2 3 4 5 5 3 3 3 3 3 3 3 3 3 3 3 3 3 3 3 3 3
3 3 3 3 3 3 2 2 1 1 1 1 2 2 2 1 2 1 1 1 1 2 2 3 5 5 4 3 3 3 3 3 4 3 3 4 4 4 3 3 3 3 3 3
2 2 2 2 2 1 1 1 1 1 1 1 1 1 1 1 1 1 1 1 1 2 2 2 2 3 3 3 3 3 3 4 4 4 4 4 4 4 3 3 4 3 3 3
1 1 1 1 1 1 1 1 1 1 1 1 1 1 1 1 0 0 1 1 1 1 1 2 2 2 2 2 3 3 3 4 4 3 3 3 3 3 3 4 3 3 3 3
Wind_Direction
274 277 272 269 263 256 258 267 277 294 298 299 96 74 77 88 96 123 144 159 162 165 164 165 171 171 163 165 174 179 177 195 218 207 176 188 187 186 179 180 208 207 192 165
275 267 266 270 267 258 257 264 273 284 295 23 50 42 50 67 77 110 187 191 183 175 179 189 183 178 169 170 170 169 174 183 185 178 157 166 176 186 177 176 202 213 186 174
275 274 272 264 260 257 262 274 280 283 301 45 41 28 26 26 20 339 143 203 194 189 187 196 200 184 177 180 169 178 186 172 154 152 160 182 191 184 210 183 197 211 202 184
270 272 261 263 259 266 265 275 294 303 358 23 27 61 51 27 357 14 54 195 220 227 215 204 206 186 177 176 178 188 188 170 171 172 165 173 185 201 220 209 209 211 208 190
260 266 264 253 263 305 290 296 318 328 347 3 50 92 42 48 35 15 2 340 277 262 253 217 199 184 170 177 184 186 196 187 180 179 172 174 194 206 216 215 209 205 200 192
256 262 267 285 33 9 306 270 18 4 5 12 19 288 330 33 25 14 23 31 27 18 24 46 164 159 159 181 191 199 200 203 187 179 177 182 201 210 204 202 199 198 209 200
252 256 261 351 43 1 254 341 15 12 12 357 315 333 28 44 34 29 33 36 34 48 45 59 141 148 157 179 201 198 194 206 185 175 179 178 187 204 203 196 196 211 211 203
240 249 247 84 113 236 331 4 14 10 1 357 14 18 46 44 40 34 26 31 30 45 39 35 75 134 166 206 224 185 187 205 189 180 190 176 179 204 203 193 200 214 220 211
235 244 41 96 340 9 5 341 355 4 355 350 349 6 34 34 31 32 16 32 32 45 60 47 74 126 189 271 296 207 194 197 186 184 177 172 181 198 203 194 200 214 218 220
253 236 222 222 300 350 352 335 351 356 341 329 319 331 350 1 322 273 272 360 11 304 214 207 209 192 188 175 232 217 240 206 196 195 187 189 195 198 196 203 209 216 223 227
262 259 254 221 205 357 350 338 333 334 329 318 306 302 299 289 281 278 281 260 214 225 234 226 226 220 177 174 202 223 236 229 226 214 200 206 218 248 225 215 211 215 226 221
256 257 269 267 257 294 293 301 308 313 311 306 293 279 273 270 279 285 286 271 243 224 228 232 225 223 202 188 206 217 228 224 212 207 199 184 202 302 307 267 236 215 224 230
269 305 306 314 319 302 286 290 291 288 283 290 298 297 293 296 290 282 282 275 261 228 225 232 226 220 218 203 210 219 223 217 203 204 208 208 216 223 270 305 292 261 245 242
262 269 274 285 293 293 290 292 291 289 287 289 299 310 315 314 307 289 280 284 276 239 232 224 220 212 204 203 216 221 219 216 208 211 218 229 231 229 223 233 263 277 264 246
247 244 255 269 269 278 281 281 280 273 272 279 296 307 314 311 301 296 294 283 266 239 236 222 214 207 200 215 222 224 213 203 212 221 222 228 231 234 236 237 244 259 274 264
240 247 252 256 254 257 262 264 261 260 264 273 276 282 292 299 300 303 305 286 257 245 235 218 216 207 201 220 230 227 214 211 212 221 231 233 227 232 239 242 248 246 240 231
229 234 238 243 247 252 257 260 259 256 262 269 274 277 284 289 285 284 287 282 262 252 238 220 217 197 208 232 236 230 209 205 213 226 234 240 239 237 236 238 245 248 248 233
236 237 239 244 247 249 254 258 260 257 255 264 265 258 252 255 260 266 276 286 283 276 271 273 52 237 237 241 238 233 220 211 212 221 228 238 249 248 244 245 244 246 257 249
236 235 239 244 245 242 248 257 267 268 258 249 250 255 259 263 273 278 275 269 266 271 291 343 309 270 255 250 245 236 239 232 229 231 229 236 244 249 250 248 245 242 240 242
233 234 239 245 241 240 244 246 254 260 255 250 255 260 263 264 262 264 266 264 258 263 306 328 291 269 261 253 276 262 252 243 233 232 232 231 239 245 247 253 252 246 242 240
232 235 241 247 243 239 239 236 238 243 250 245 244 252 263 272 269 261 270 281 299 345 335 300 292 293 267 284 273 266 256 251 245 238 235 236 240 243 246 251 253 249 249 251
235 235 241 247 245 243 240 236 233 233 241 244 247 255 260 268 273 273 266 261 295 334 323 303 313 317 309 295 264 260 257 257 256 248 242 241 244 251 256 260 259 256 254 252
243 243 244 248 246 246 240 230 226 227 233 234 237 249 249 251 244 248 266 285 263 297 303 296 309 312 304 282 262 259 262 265 264 262 262 262 261 261 262 264 261 260 260 263
246 239 241 248 245 239 230 227 227 233 235 241 245 252 253 258 263 260 253 247 277 278 287 291 297 297 293 280 273 268 263 264 266 267 270 270 267 265 266 265 263 259 256 258
256 238 230 233 234 229 218 212 217 221 221 231 235 248 253 246 245 259 252 237 264 286 289 289 290 288 281 279 282 284 280 274 274 275 269 270 268 265 263 259 257 260 260 258
274 257 239 231 233 220 212 209 217 228 228 236 239 232 255 266 247 248 250 236 254 275 282 286 285 280 282 288 290 292 289 287 284 277 271 269 269 268 264 259 258 257 258 256
271 269 248 221 221 215 212 215 227 238 236 240 253 252 258 279 273 263 274 276 280 275 281 295 301 298 297 298 294 292 294 295 291 285 281 278 275 271 265 258 255 254 255 254
Height
1501 1499 1501 1503 1505 1505 1508 1509 1514 1509 1507 1503 1503 1506 1508 1510 1511 1513 1514 1516 1517 1519 1520 1522 1524 1525 1526 1527 1528 1529 1529 1530 1530 1530 1531 1531 1532 1533 1533 1534 1535 1536 1537 1537
1503 1498 1499 1502 1501 1501 1503 1503 1504 1504 1505 1502 1503 1506 1507 1509 1510 1512 1513 1514 1516 1517 1519 1520 1522 1523 1524 1525 1526 1527 1527 1528 1528 1528 1529 1529 1530 1531 1531 1532 1533 1534 1535 1535
1509 1499 1501 1507 1499 1499 1500 1499 1501 1505 1504 1502 1504 1506 1507 1508 1510 1510 1512 1513 1514 1515 1516 1517 1519 1520 1521 1522 1523 1524 1525 1525 1526 1526 1526 1527 1528 1528 1529 1529 1530 1531 1532 1532
1508 1507 1517 1503 1491 1493 1497 1498 1498 1498 1499 1501 1503 1505 1507 1508 1509 1509 1510 1511 1512 1513 1514 1515 1516 1517 1518 1519 1520 1522 1522 1523 1523 1524 1524 1525 1525 1525 1526 1526 1527 1528 1528 1529
1509 1512 1506 1497 1493 1494 1498 1500 1497 1498 1499 1500 1502 1504 1505 1507 1508 1508 1509 1509 1509 1510 1510 1511 1513 1514 1515 1516 1518 1519 1519 1520 1520 1521 1522 1522 1523 1523 1523 1523 1524 1524 1525 1526
1508 1514 1513 1502 1494 1493 1497 1503 1497 1497 1499 1500 1501 1505 1505 1505 1506 1506 1506 1506 1506 1506 1507 1508 1509 1511 1512 1513 1514 1515 1516 1517 1518 1519 1519 1519 1520 1520 1521 1521 1521 1522 1522 1523
1509 1510 1502 1496 1495 1495 1507 1506 1499 1499 1499 1500 1502 1504 1504 1504 1504 1505 1504 1504 1504 1504 1505 1506 1507 1508 1509 1511 1512 1513 1514 1515 1515 1516 1516 1517 1517 1518 1518 1518 1519 1519 1520 1520
1505 1509 1507 1495 1496 1499 1501 1499 1498 1499 1500 1500 1501 1501 1502 1502 1503 1503 1503 1503 1502 1503 1503 1504 1505 1506 1507 1507 1509 1510 1511 1512 1512 1513 1514 1514 1515 1515 1515 1516 1516 1517 1517 1517
1496 1499 1494 1494 1496 1497 1498 1498 1499 1499 1500 1500 1500 1500 1501 1501 1501 1501 1501 1501 1501 1501 1501 1502 1503 1503 1504 1505 1506 1507 1508 1509 1509 1510 1511 1511 1512 1512 1512 1513 1513 1513 1514 1514
1491 1490 1492 1493 1495 1496 1497 1497 1498 1498 1498 1499 1499 1499 1499 1499 1500 1500 1499 1499 1499 1499 1499 1500 1500 1501 1502 1502 1503 1504 1505 1506 1506 1507 1507 1508 1508 1509 1509 1509 1509 1510 1510 1510
1489 1489 1490 1491 1493 1495 1495 1496 1496 1496 1497 1497 1497 1497 1497 1497 1497 1497 1497 1497 1497 1497 1497 1497 1498 1498 1499 1499 1500 1501 1502 1502 1503 1503 1504 1504 1504 1505 1505 1505 1506 1506 1506 1507
1489 1487 1489 1490 1491 1493 1493 1494 1494 1494 1494 1495 1495 1495 1495 1495 1495 1495 1494 1494 1494 1494 1494 1494 1495 1495 1496 1496 1497 1498 1498 1499 1500 1500 1500 1500 1500 1501 1501 1502 1502 1502 1502 1503
1485 1485 1487 1488 1489 1490 1491 1491 1492 1492 1492 1492 1492 1492 1492 1492 1492 1492 1491 1491 1491 1491 1491 1491 1491 1491 1492 1493 1494 1494 1495 1495 1496 1496 1496 1496 1497 1496 1496 1497 1497 1497 1498 1498
1483 1484 1485 1486 1487 1488 1489 1489 1489 1489 1489 1489 1490 1490 1490 1489 1489 1488 1488 1488 1488 1488 1488 1488 1488 1488 1488 1489 1490 1491 1491 1492 1492 1492 1492 1493 1493 1493 1492 1492 1492 1492 1493 1493
1480 1481 1483 1484 1485 1485 1486 1486 1486 1486 1487 1487 1487 1487 1487 1486 1486 1485 1485 1485 1485 1484 1484 1484 1485 1485 1485 1486 1486 1487 1487 1487 1488 1488 1488 1489 1489 1489 1489 1489 1488 1488 1488 1488
1477 1478 1480 1481 1481 1482 1483 1483 1483 1483 1484 1484 1484 1484 1484 1483 1483 1482 1482 1482 1482 1481 1481 1481 1481 1481 1482 1482 1483 1483 1484 1484 1484 1484 1484 1485 1485 1485 1485 1484 1484 1484 1483 1483
1473 1474 1476 1477 1478 1478 1479 1479 1480 1480 1480 1480 1480 1480 1480 1480 1479 1479 1479 1478 1478 1478 1478 1478 1478 1478 1478 1478 1479 1479 1479 1480 1480 1480 1480 1480 1481 1481 1480 1480 1480 1479 1479 1479
1469 1470 1472 1473 1474 1474 1475 1476 1476 1476 1477 1477 1477 1477 1477 1476 1476 1476 1475 1475 1475 1475 1475 1475 1474 1474 1474 1474 1475 1475 1475 1475 1475 1475 1475 1476 1476 1476 1476 1476 1475 1475 1474 1474
1464 1466 1467 1468 1469 1470 1471 1472 1472 1473 1473 1473 1473 1473 1473 1473 1473 1472 1472 1472 1471 1471 1471 1471 1471 1471 1470 1470 1470 1470 1471 1471 1471 1471 1471 1471 1471 1471 1471 1471 1471 1470 1470 1469
1460 1462 1463 1464 1465 1466 1467 1467 1468 1469 1469 1469 1469 1469 1469 1469 1469 1469 1468 1468 1468 1467 1467 1467 1467 1467 1466 1466 1466 1466 1466 1466 1466 1466 1466 1467 1467 1466 1466 1466 1466 1465 1465 1464
1456 1457 1459 1460 1461 1462 1463 1463 1464 1464 1465 1465 1465 1465 1465 1465 1465 1465 1464 1464 1464 1464 1463 1463 1463 1462 1462 1462 1462 1462 1462 1462 1462 1462 1462 1462 1462 1462 1461 1461 1460 1460 1459 1459
1452 1453 1454 1456 1457 1457 1458 1459 1459 1459 1460 1460 1460 1461 1461 1461 1461 1461 1460 1460 1460 1460 1459 1459 1458 1458 1458 1458 1457 1457 1457 1457 1457 1457 1457 1457 1457 1456 1456 1456 1455 1454 1454 1453
1448 1449 1450 1451 1452 1453 1453 1454 1455 1455 1455 1455 1456 1456 1456 1456 1457 1457 1456 1456 1456 1456 1455 1455 1454 1454 1454 1454 1453 1453 1452 1452 1452 1452 1452 1451 1451 1451 1450 1450 1449 1448 1448 1447
1444 1445 1446 1447 1448 1449 1449 1450 1450 1451 1451 1452 1452 1452 1452 1452 1452 1453 1452 1452 1452 1452 1451 1451 1451 1450 1450 1449 1449 1448 1448 1448 1447 1447 1447 1446 1445 1445 1444 1444 1443 1442 1442 1441
1441 1442 1442 1443 1444 1445 1445 1446 1447 1447 1448 1448 1448 1448 1449 1448 1448 1448 1448 1448 1448 1447 1447 1446 1446 1446 1445 1445 1444 1444 1443 1443 1442 1442 1441 1440 1440 1439 1438 1437 1437 1436 1435 1435
1437 1438 1439 1439 1440 1441 1442 1442 1443 1443 1444 1444 1444 1444 1444 1444 1444 1444 1444 1444 1444 1443 1443 1442 1442 1441 1441 1440 1440 1439 1438 1438 1437 1436 1436 1435 1434 1433 1432 1431 1431 1430 1429 1428
1434 1435 1436 1436 1437 1438 1438 1439 1439 1440 1440 1440 1440 1440 1440 1440 1440 1440 1440 1440 1440 1439 1439 1438 1438 1437 1436 1436 1435 1434 1433 1432 1432 1431 1430 1429 1428 1427 1426 1425 1424 1424 1423 1422